Flag for Colombia Weather past 2 weeks in Bogota, Colombia

Now
54 °F

Passing clouds.


Feels Like: 54 °F
Forecast: 50 / 62 °F
Wind: 2 mph from Southeast

Location: Bogota / Eldorado

Current Time: Jul 6, 2015 at 2:44:27 AM

Latest Report: Jul 6, 2015 at 2:00 AM


Visibility: N/A

Pressure: 30.35 "Hg (22.18 "Hg at 2618m altitude)

Humidity: 82%

Dew point: 48 °F

Location of BogotaLocation

Historic Weather in Bogota — Graph

°F

Bogota temperature yesterday

Maximum temperature yesterday: 68 °F (at 1:00 PM)
Minimum temperature yesterday: 54 °F (at 1:00 AM)
Average temperature yesterday: 60 °F

Past Weeks' High & Low Weather Summary

 TemperatureHumidityPressure
High81 °F (Jun 22, 2:00 PM)100% (Jun 22, 6:00 AM)30.43 "Hg (Jun 22, 6:00 AM)
Low45 °F (Jun 30, 4:00 AM)35% (Jul 5, 4:00 PM)29.97 "Hg (Jun 22, 2:00 PM)
Average58 °F71%30.35 "Hg
* Reported Jun 21 1:00 AM — Jul 6 1:00 AM, Bogota, Weather by CustomWeather, © 2015

Note: Actual official high and low records may vary slightly from our data, if they occured in-between our weather recording intervals... More about our weather records

Advertising

Bogota weather history for previous 24 hours

 ConditionsComfort  
Time TempWeatherWind HumidityBarometerVisibility
1:00 AM
Mon, Jul 6
55 °FScattered showers. Partly cloudy.3 mph77%30.35 "HgN/A
12:00 AM54 °FPartly cloudy.5 mph82%30.36 "HgN/A
11:00 PM
Sun, Jul 5
54 °FPartly cloudy.3 mph82%30.38 "HgN/A
10:00 PM55 °FOvercast.7 mph72%30.37 "HgN/A
9:00 PM57 °FOvercast.7 mph63%30.35 "HgN/A
8:00 PM59 °FPassing clouds.7 mph55%30.33 "HgN/A
7:00 PM61 °FPassing clouds.7 mph52%30.30 "HgN/A
6:00 PM63 °FPartly sunny.8 mph45%30.29 "HgN/A
5:00 PM64 °FPartly sunny.10 mph40%30.29 "HgN/A
4:00 PM66 °FPartly sunny.13 mph35%30.28 "HgN/A
3:00 PM66 °FBroken clouds.9 mph43%30.29 "HgN/A
2:00 PM66 °FBroken clouds.9 mph46%30.30 "HgN/A
1:00 PM68 °FBroken clouds.12 mph38%30.33 "HgN/A
12:00 PM66 °FBroken clouds.10 mph43%30.35 "HgN/A
11:00 AM64 °FBroken clouds.14 mph46%30.36 "HgN/A
10:00 AM64 °FBroken clouds.18 mph46%30.37 "HgN/A
9:00 AM61 °FBroken clouds.12 mph52%30.37 "HgN/A
8:00 AM59 °FBroken clouds.9 mph55%30.35 "HgN/A
7:00 AM57 °FScattered clouds.7 mph59%30.35 "HgN/A
6:00 AM55 °FScattered clouds.7 mph67%30.31 "HgN/A
5:00 AM55 °FPassing clouds.7 mph77%30.31 "HgN/A
4:00 AM54 °FPassing clouds.7 mph88%30.31 "HgN/A
3:00 AM54 °FPassing clouds.2 mph94%30.32 "HgN/A
2:00 AM54 °FLight rain. Passing clouds.2 mph94%30.33 "Hg5 mi
Weather by CustomWeather, © 2015

See weather overviewHow to use our weather pages